User: anonymous   Login
Location: Unspecified
(0.0000°N, 0.0000°E)
Time: 23:58:03
(UTC+01:00)
Language:

PSLV R/B - Orbit

View from above orbital plane
View from above orbital plane
View from above satellite
View from above satellite

Ground track
Ground track

The orbit data is extracted from the following two-line orbital elements,

1 29713U 07001E   14330.75030517  .00003080  00000-0  38162-3 0  4921
2 29713 097.6593 318.2551 0024423 281.6519 078.1954 14.83197187425582
Epoch (UTC): 26 November 2014 18:00:26
Eccentricity: 0.0024423
inclination: 97.6593°
perigee height: 602 km
apogee height: 636 km
right ascension of ascending node: 318.2551°
argument of perigee: 281.6519°
revolutions per day: 14.83197187
mean anomaly at epoch: 78.1954°
orbit number at epoch: 42558

The dashed part of the orbit path shows where the satellite is in the earth's shadow,  

DLR